Regional Weather Roundup
Issued by NWS Cleveland, OH

Home | Current Version | Previous Version | Graphics & Text | Print | Product List | Glossary On
Versions: 1 2 3 4 5 6 7 8 9 10 11 12 13 14 15 16 17 18 19 20 21 22 23 24 25 26 27 28 29 30 31 32 33 34 35 36 37 38 39 40 41 42 43 44 45 46 47 48 49 50
000
ASUS41 KCLE 162000
RWRCLE
OHIO REGIONAL WEATHER ROUNDUP
NATIONAL WEATHER SERVICE WILMINGTON, OH
400 PM EDT TUE SEP 16 2014

NOTE: "FAIR" INDICATES FEW OR NO CLOUDS BELOW 12,000 FEET WITH NO
SIGNIFICANT WEATHER AND/OR OBSTRUCTIONS TO VISIBILITY.

OHZ001>008-015>018-024>027-034-035-043-044-162100-
   NORTHWEST OHIO

CITY           SKY/WX    TMP DP  RH WIND       PRES   REMARKS
DEFIANCE       MOSUNNY   67  45  45 MISG      30.12F
FINDLAY        SUNNY     67  46  47 W6        30.10F
TOLEDO EXPRESS SUNNY     64  43  46 W5        30.11F
TOLEDO METCALF PTSUNNY   65  44  46 CALM      30.12F
LIMA           PTSUNNY   66  50  56 MISG      30.12F
$$

OHZ009>014-019>023-028>033-038-089-162100-
   NORTHEAST OHIO

CITY           SKY/WX    TMP DP  RH WIND       PRES   REMARKS
CLE-HOPKINS    MOSUNNY   63  50  62 N12       30.12F
CLE-LAKEFRONT  MOSUNNY   63  50  62 NW7       30.10F
CUY CO. ARPT   PTSUNNY   61  52  72 N12       30.10F
LORAIN-ELYRIA  PTSUNNY   67  52  58 N9        30.11F
ASHTABULA      MOSUNNY   63  48  58 NW7       30.10F
AKRON-CANTON   PTSUNNY   66  50  56 N5        30.08F
WOOSTER        NOT AVBL
MANSFIELD      PTSUNNY   64  48  56 W6        30.11S
YOUNGSTOWN     PTSUNNY   64  49  57 VRB6      30.08F
$$

OHZ042-051>053-060>062-070>072-077>081-162100-
  SOUTHWEST OHIO

CITY           SKY/WX    TMP DP  RH WIND       PRES   REMARKS
CINC-COVINGTON CLOUDY    61  50  67 N6        30.13F
CINC-LUNKEN    CLOUDY    61  51  70 E3        30.14F
HAMILTON       CLOUDY    62  52  69 CALM      30.15F
DAYTON         NOT AVBL
WRIGHT-PAT AFB CLOUDY    60  50  67 NE5       30.14F
DAYTON GENERAL CLOUDY    60  51  72 N5        30.13F
WILMINGTON     CLOUDY    60  50  69 N5        30.13F
$$

OHZ036-037-039>041-045>050-054>059-063>069-073>076-082>088-162100-
  CENTRAL AND SOUTHEAST OHIO

CITY           SKY/WX    TMP DP  RH WIND       PRES   REMARKS
COLUMBUS       CLOUDY    64  49  57 CALM      30.11F
OSU AIRPORT    CLOUDY    63  49  60 NW3       30.12F
BOLTON FIELD   CLOUDY    61  52  72 CALM      30.13F
RICKENBACK AFB NOT AVBL
NEWARK         PTSUNNY   63  51  65 CALM      30.11F
MARION         MOSUNNY   62  49  62 CALM      30.12F
LANCASTER      CLOUDY    64  51  62 CALM      30.12F
ZANESVILLE     MOSUNNY   66  49  54 VRB5      30.10F
NEW PHILLY     PTSUNNY   65  51  60 SW3       30.09F
$$



USA.gov is the U.S. government's official web portal to all federal, state and local government web resources and services.